Regional Weather Roundup
Issued by NWS

Home | Current Version | Previous Version | Text Only | Print | Product List | Glossary On
Versions: 1 2 3 4 5 6 7 8 9 10 11 12 13 14 15 16 17 18 19 20 21 22 23 24 25 26 27 28 29 30 31 32 33 34 35 36 37 38 39 40 41 42 43 44 45 46 47 48 49 50
000
ASUS44 KFWD 281315
RWRTX
NORTH TEXAS HOURLY WEATHER ROUNDUP
NATIONAL WEATHER SERVICE FORT WORTH TX
800 AM CDT TUE JUL 28 2015

NOTE: "FAIR" INDICATES FEW OR NO CLOUDS BELOW 12,000 FEET WITH NO
SIGNIFICANT WEATHER AND/OR OBSTRUCTIONS TO VISIBILITY.

TXZ118-119-281400-
DALLAS/FORT WORTH METROPLEX

CITY           SKY/WX    TMP DP  RH WIND       PRES   REMARKS
DFW AIRPORT    SUNNY     82  70  66 SW13      29.95R
DALLAS LOVE    SUNNY     83  69  62 S7        29.96R
FTW MEACHAM      N/A     82  71  69 S9        29.95R
DAL-EXECUTIVE  SUNNY     80  70  71 VRB3      29.96R
FTW-ALLIANCE   MOSUNNY   81  70  69 S9        29.95R
FTW-NAS-JRB    SUNNY     81  72  74 S10       29.96R
FTW-SPINKS     SUNNY     79  72  78 S8        29.98R
ARLINGTON      SUNNY     81  70  69 S10       29.96R
GRAND PRAIRIE  SUNNY     81  72  74 S9        29.98R
ADDISON        SUNNY     82  68  61 S9        29.97R
MESQUITE       SUNNY     79  72  78 SE5       29.97R
LANCASTER      SUNNY     79  70  74 S5        29.97R
$$

TXZ091>094-102>105-117-120-121-131>134-281400-
NORTH CENTRAL TEXAS

CITY           SKY/WX    TMP DP  RH WIND       PRES   REMARKS
SHRMAN/DENISON SUNNY     82  73  74 S6        29.97R
GAINESVILLE    SUNNY     77  69  77 CALM      29.98R
BOWIE          SUNNY     77  68  74 S5        29.97R
DECATUR        SUNNY     79  67  66 S10       29.97R
DENTON         SUNNY     80  71  74 S5        29.95R
MCKINNEY       SUNNY     80  71  74 S6        29.96R
GREENVILLE     SUNNY     81  70  69 S6        29.98R
ROCKWALL       SUNNY     79  72  78 S6        29.96R
TERRELL        SUNNY     79  73  82 S6        29.98R
WAXAHACHIE     SUNNY     78  72  82 S8        29.98R
CLEBURNE       SUNNY     77  73  88 S8        29.99R
GRANBURY       SUNNY     81  69  67 SE5       29.98R
$$

TXZ083>090-098>101-113>116-127>130-139>142-154-155-281400-
WESTERN NORTH TEXAS

CITY           SKY/WX    TMP DP  RH WIND       PRES   REMARKS
WICHITA FALLS  SUNNY     78  68  71 S12       29.93R
WF-KICKAPOO    SUNNY     80  69  69 S6        29.95R
VERNON         SUNNY     80  62  53 S12       29.93S
ABILENE        SUNNY     77  67  71 S8        29.98R
ABILENE-DYESS  SUNNY     78  69  72 S8        29.97R
BRECKENRIDGE   SUNNY     79  68  70 S8        29.96R
GRAHAM         SUNNY     78  70  75 SE3       29.95R
MINERAL WELLS  SUNNY     76  69  79 SE7       29.96R
STEPHENVILLE   SUNNY     74  68  81 S3        30.01R
COMANCHE       SUNNY     75  70  84 S8        29.98R
BROWNWOOD      MOSUNNY   75  70  83 S6        29.99R
COLEMAN        SUNNY     75  70  83 S7        30.00R
BRADY          CLOUDY    77  72  83 S9        29.99R
$$

TXZ143>147-156>162-174-175-281400-
CENTRAL TEXAS

CITY           SKY/WX    TMP DP  RH WIND       PRES   REMARKS
WACO           MOSUNNY   78  73  84 S13       29.98R
WACO-TSTC      PTSUNNY   77  73  88 S7        29.98R
WACO-MCGREGOR  SUNNY     77  70  78 S9        30.00R
HILLSBORO      SUNNY     78  71  79 S9        29.98R
CORSICANA      MOSUNNY   80  74  81 S14       29.99R
MEXIA          MOSUNNY   77  74  92 SE14      29.97S
HEARNE         CLOUDY    77  75  93 SE6       30.00R
CAMERON        SUNNY     78  75  93 S6        29.98R FOG
TEMPLE         MOSUNNY   75  70  83 S9        29.98R
KILLEEN        SUNNY     76  73  90 S8        29.98R FOG
KILLEEN-SKYLRK SUNNY     77  70  78 S5        29.98R
FORT HOOD      MOSUNNY   76  73  88 S8        29.97R
GATESVILLE     SUNNY     75  72  88 S7        30.00S
HAMILTON       SUNNY     75  72  89 S9        30.00R
LAMPASAS       MOSUNNY   76  73  90 S5        29.98R
$$

TXZ095>097-106>112-122>126-135>138-148>153-164>167-281400-
EAST TEXAS

CITY           SKY/WX    TMP DP  RH WIND       PRES   REMARKS
PARIS          SUNNY     81  72  74 SW6       29.97R
SULPHUR SPRNGS SUNNY     82  71  71 S12       29.99S
MOUNT PLEASANT SUNNY     80  73  79 CALM      29.99S
GILMER         SUNNY     79  72  80 S3        29.99R
MINEOLA        SUNNY     81  73  78 S6        29.99R
TYLER          SUNNY     82  73  74 SW7       29.99R
LONGVIEW       SUNNY     81  74  79 SW6       29.98R
MARSHALL       SUNNY     79  75  87 S3        30.01R
ATHENS         SUNNY     77  72  83 S3        29.98R
PALESTINE      CLOUDY    78  75  90 S3        30.01R
JACKSONVILLE   CLOUDY    78  74  86 SW7       30.03R
HENDERSON      SUNNY     78  74  89 MISG      30.00R
CENTER         FAIR      81  75  82 CALM      30.00R
NACOGDOCHES    SUNNY     77  73  88 S3        30.00R
LUFKIN         SUNNY     77  74  90 SE3       30.00R
$$

SUPPLEMENTAL OBSERVATIONS (CENTRAL)

CITY           SKY/WX    TMP DP  RH WIND       PRES   REMARKS
LAKE TEXOMA      N/A     82  72  69 S2          N/A
CADDO GRASSLND   N/A     82  72  69 S8          N/A
PAT MAYSE LAKE   N/A     81  73  78 S9          N/A
GREENVILLE       N/A     82  72  69 S8          N/A
CEDAR HILL       N/A     81  68  65 S7          N/A
ATHENS           N/A     81  73  78 S7          N/A
LAKE LIMESTONE   N/A     79  75  89 S7          N/A
MCGREGOR         N/A     77  73  88 S7          N/A
TEMPLE           N/A     79  73  83 S10         N/A
$$

SUPPLEMENTAL OBSERVATIONS (WEST)

CITY           SKY/WX    TMP DP  RH WIND       PRES   REMARKS
MILLERS CREEK    N/A     81  68  65 S8          N/A
POSSUM KINGDOM   N/A     79  66  65 S8          N/A
LBJ GRASSLAND    N/A     79  70  73 SE7         N/A
GRANBURY         N/A     81  68  65 SE7         N/A
COMANCHE         N/A     75  68  78 S9          N/A
HAMBY            N/A     77  66  69 S12         N/A
IVIE RESERVOIR   N/A     77  68  73 SE5         N/A
COLORADO BEND    N/A     75  68  78 SW8         N/A
$$

SUPPLEMENTAL OBSERVATIONS (EAST)

CITY           SKY/WX    TMP DP  RH WIND       PRES   REMARKS
CLARKSVILLE      N/A     82  75  78 SW3         N/A
CADDO LAKE       N/A     82  77  83 W2          N/A  HX  91
GILMER           N/A     81  72  74 S2          N/A
HENDERSON        N/A     79  73  83 S5          N/A
LUFKIN           N/A     81  77  89 MISG        N/A
N SABINE NF      N/A     77  73  88 MISG        N/A
S SABINE NF      N/A     81  75  83 CALM        N/A
$$

SUPPLEMENTAL OBSERVATIONS ARE A COLLECTION OF AUTOMATED INSTRUMENTS
THAT ARE MAINTAINED BY A VARIETY OF FEDERAL AND STATE AGENCIES.
CERTAIN ELEMENTS...SUCH AS HUMIDITY VALUES AND SUSTAINED WIND
SPEEDS...MAY BE APPROXIMATED.




USA.gov is the U.S. government's official web portal to all federal, state and local government web resources and services.